STARLINK-11549, 62832

Orbit data source: Space-Track

STARLINK-11549, 62832 is a payload satellite owned by SpaceX/Seattle (US) in LEO that was launched on Mon, 27 Jan 2025 UTC via an FALCON 9 launch vehicle from the Air Force Eastern Test Range (AFETR). Payload-class satellites include a variety of spacecraft equipped with specific instruments for various scientific and technological missions. These include communications satellites like Starlink; space stations such as the ISS; scientific satellites like the Hubble; Earth observation satellites from companies like Planet Labs, Umbra, and HawkEye 360; GPS; miniature CubeSats for education and research; and military/defense satellites.

Loading next visibility...
Identifier
62832, 2025-019D
Orbit
LEO
Country
Flag of USUS
Related business
Manufacturer
SpaceX/Seattle
Mission
Operational Commercial Communications
Bus & Motor
STARLINK V2MD, Unknown motor
Mass
960 kg wet, ~910 kg dry
Launch date (UTC)
2025-01-27 (9 months ago)
Launch vehicle
FALCON 9
Launch site
Air Force Eastern Test Range (AFETR)
Object type
Payload
Rocket body
Debris
Shape & HBR
Box + 2 Pan, 18.1 m
Radar Cross Section
36.964 m², Large (>1 m²)

Expand to show TLE details & history
Last TLE update: 16 hours ago

TLE from 16 hours ago
0 STARLINK-11549
1 62832U 25019D   25295.04971384  .00368119  00000-0  27004-2 0  9990
2 62832  42.9997  61.8947 0003400 296.1437  63.9081 15.71248192 42077
Epoch: 2025-10-22T01:11Z
TLE epoch observation values (Epoch: 2025-10-22T01:11:35.275Z)
Latitude
-0.00002°
Longitude
13.2688°
Altitude
354.094 km
Speed
7.699 km/s
True Right ascension
04h 07m 34s
True Declination
0° 00' 00"
Sunlit
Object was in full shadow at epoch
Visualization orbit readout
Latitude
Unknown
Longitude
Unknown
Altitude
Unknown
Speed
Unknown
Apparent Right ascension
Unknown
Apparent Declination
Unknown
Sunlit
N/A
Visualization observer readout
Local Sidereal Time
11:51:15
Azimuth
Unknown
Elevation
Unknown
Doppler factor
Unknown
Orbital elements
Apogee altitude
359.601 km
Perigee altitude
355.021 km
Semi-major axis
6,735.448 km
Eccentricity
0.00034
Inclination
42.9997°
RAAN
61.8947°
Arg. of periapsis
296.1437°
True anomaly
63.9431°
Mean anomaly
63.9081°
Eccentric anomaly
63.9256°
Mean motion
3.92639 °/min
Orbital period
91.69 mins
BSTAR
0.0027004
Loading maneuver chart data...
Computing Atmospheric mass density...
Loading historical data...
Loading historical data...
Loading historical data...
Loading historical data...
Loading historical data...
Loading historical data...
Loading historical data...

Documentation

Showing up to 5 results
|